EW9477 Melville NY US current weather conditions

sailwx.info

Wind from 134 at 1 knots gusting 5

Air temperature 12.8° C
Dewpoint 11.5° C

Last reported at 2019-Oct-22 14:00 UTC.
Time now 2019-Oct-22 14:59 UTC

Location: N 40°47' W 073°26'.
View on Google Maps.

See reports from other nearby stations

  
Tides and Currents Weather Stations Pressure Air Temp Water Temp Dewpoint Dewpoint Depression Visibility Wind Speed Wind Dir Waves Ship Positions
date/time (UTC)wind fromknots sea level pressurealtimeterstation pressurevisibilityair tempwater tempwave heightnotes
2019-Oct-22 14:00 134 1 gusting 5 12.8
2019-Oct-22 13:46 160 1 gusting 8 12.8
2019-Oct-22 13:30 079 1 gusting 5 12.2
2019-Oct-22 13:15 155 3 gusting 9 12.2
2019-Oct-22 13:00 105 3 gusting 7 12.2
2019-Oct-22 12:46 137 0 gusting 4 12.2
2019-Oct-22 12:30 078 1 gusting 6 12.2
2019-Oct-22 12:15 096 2 gusting 6 12.2
2019-Oct-22 12:00 098 12.2
2019-Oct-22 11:45 064 12.2
2019-Oct-22 11:30 059 0 gusting 4 12.2
2019-Oct-22 11:15 113 1 gusting 5 11.7
2019-Oct-22 10:46 247 1 gusting 5 11.7
2019-Oct-22 10:34 109 0 gusting 4 11.7
2019-Oct-22 10:17 084 1 gusting 4 11.7
2019-Oct-22 10:01 077 0 gusting 4 11.7
2019-Oct-22 09:47 087 11.1
2019-Oct-22 09:31 113 0 gusting 3 11.1
2019-Oct-22 09:16 113 11.1
2019-Oct-22 09:02 055 11.1
2019-Oct-22 08:46 121 11.1
2019-Oct-22 08:31 078 11.1
2019-Oct-22 08:16 128 0 gusting 3 11.1
2019-Oct-22 08:01 117 0 gusting 3 11.1
2019-Oct-22 07:47 104 11.1
2019-Oct-22 07:32 085 0 gusting 2 11.1
2019-Oct-22 07:16 131 0 gusting 4 11.1
2019-Oct-22 07:00 011 11.1
2019-Oct-22 06:48 124 0 gusting 2 10.6
2019-Oct-22 06:31 044 0 gusting 2 10.6
2019-Oct-22 06:16 099 10.6
2019-Oct-22 05:46 095 10.6
2019-Oct-22 05:30 094 10.6
2019-Oct-22 05:15 075 0 gusting 5 10.6
2019-Oct-22 05:01 084 0 gusting 2 10.6
2019-Oct-22 04:46 096 10.6
2019-Oct-22 04:30 096 11.1
2019-Oct-22 04:15 073 11.1
2019-Oct-22 04:00 092 11.1
2019-Oct-22 03:45 092 11.1
2019-Oct-22 03:30 092 11.1
2019-Oct-22 03:15 092 11.1
2019-Oct-22 03:01 092 11.7
2019-Oct-22 02:46 092 11.7
2019-Oct-22 02:30 076 11.7
2019-Oct-22 02:15 091 11.7
2019-Oct-22 02:00 091 11.7
2019-Oct-22 01:45 091 11.7
2019-Oct-22 01:30 091 11.7
2019-Oct-22 01:15 091 11.7
2019-Oct-22 01:00 055 11.7
2019-Oct-22 00:45 126 12.2
2019-Oct-22 00:30 126 12.2
2019-Oct-22 00:15 126 12.8
2019-Oct-22 00:00 126 12.8
2019-Oct-21 23:45 126 12.8
2019-Oct-21 23:30 126 13.3
2019-Oct-21 23:15 126 13.3
2019-Oct-21 23:00 126 13.3
2019-Oct-21 22:45 126 13.3
2019-Oct-21 22:30 126 13.9
2019-Oct-21 22:01 126 0 gusting 1 15.0
2019-Oct-21 21:47 126 15.6
2019-Oct-21 21:32 126 16.1
2019-Oct-21 21:18 126 16.7
2019-Oct-21 21:01 103 0 gusting 5 16.7
2019-Oct-21 20:46 134 0 gusting 4 16.7
2019-Oct-21 20:31 138 1 gusting 3 16.7
2019-Oct-21 20:17 296 0 gusting 4 16.7
2019-Oct-21 20:01 076 0 gusting 6 16.7
2019-Oct-21 19:47 059 1 gusting 4 16.7
2019-Oct-21 19:31 101 16.7
2019-Oct-21 19:17 334 1 gusting 6 17.2
2019-Oct-21 19:01 044 2 gusting 7 17.2
2019-Oct-21 18:47 146 2 gusting 8 17.2
2019-Oct-21 18:31 075 2 gusting 7 17.8
2019-Oct-21 18:17 005 1 gusting 8 17.8
2019-Oct-21 18:01 057 1 gusting 9 17.8
2019-Oct-21 17:47 346 2 gusting 6 17.2
2019-Oct-21 17:16 028 3 gusting 7 16.7
2019-Oct-21 17:01 336 2 gusting 10 16.1
2019-Oct-21 16:46 037 2 gusting 6 16.1
2019-Oct-21 16:31 306 0 gusting 9 15.6
2019-Oct-21 16:17 078 3 gusting 14 15.0
2019-Oct-21 16:01 005 2 gusting 7 15.6
2019-Oct-21 15:45 355 2 gusting 5 15.0
2019-Oct-21 15:30 034 1 gusting 7 14.4
2019-Oct-21 15:15 059 2 gusting 8 14.4
2019-Oct-21 15:00 005 3 gusting 9 13.9
2019-Oct-21 14:45 042 4 gusting 9 13.9
2019-Oct-21 14:30 071 3 gusting 11 13.9
2019-Oct-21 14:19 105 3 gusting 9 13.9
2019-Oct-21 14:02 355 2 gusting 13 13.3
2019-Oct-21 13:46 030 4 gusting 8 13.3
2019-Oct-21 13:31 165 1 gusting 11 12.8
2019-Oct-21 13:16 346 3 gusting 10 12.8
2019-Oct-21 13:01 071 1 gusting 7 12.2
2019-Oct-21 12:46 085 2 gusting 6 11.7
2019-Oct-21 12:31 005 2 gusting 8 11.1
2019-Oct-21 12:16 005 3 gusting 10 11.1
2019-Oct-21 12:00 051 2 gusting 6 10.6
2019-Oct-21 11:45 355 1 gusting 4 10.6
2019-Oct-21 11:30 347 1 gusting 6 10.6
2019-Oct-21 11:15 346 0 gusting 5 10.6
2019-Oct-21 11:00 024 1 gusting 5 10.6
2019-Oct-21 10:45 301 0 gusting 7 10.6
2019-Oct-21 10:30 022 1 gusting 6 10.6
2019-Oct-21 10:15 351 1 gusting 4 11.1
2019-Oct-21 10:00 300 1 gusting 7 11.1
2019-Oct-21 09:45 032 1 gusting 5 11.1
2019-Oct-21 09:32 042 0 gusting 4 11.1
2019-Oct-21 09:17 019 0 gusting 6 11.1
2019-Oct-21 09:01 313 1 gusting 5 11.1
2019-Oct-21 08:46 005 0 gusting 7 11.1
2019-Oct-21 08:31 325 1 gusting 5 11.1
2019-Oct-21 08:16 340 2 gusting 5 11.1
2019-Oct-21 08:02 101 2 gusting 8 11.1
2019-Oct-21 07:47 005 1 gusting 8 11.1
2019-Oct-21 07:32 340 3 gusting 10 11.1
2019-Oct-21 07:16 348 2 gusting 8 10.6
2019-Oct-21 07:01 350 2 gusting 7 10.6
2019-Oct-21 06:46 043 1 gusting 7 10.6
2019-Oct-21 06:31 125 0 gusting 12 10.6
2019-Oct-21 06:16 005 1 gusting 6 10.6
2019-Oct-21 06:02 276 1 gusting 7 10.6
2019-Oct-21 05:46 029 2 gusting 8 10.6
2019-Oct-21 05:31 051 2 gusting 8 10.6
2019-Oct-21 05:16 084 1 gusting 6 10.6
2019-Oct-21 05:01 360 2 gusting 8 10.6
2019-Oct-21 04:46 027 2 gusting 7 11.1
2019-Oct-21 04:31 005 0 gusting 5 11.1
2019-Oct-21 04:15 342 0 gusting 6 11.1
2019-Oct-21 04:00 055 0 gusting 4 11.1
2019-Oct-21 03:46 355 4 gusting 9 11.1
2019-Oct-21 03:30 355 1 gusting 7 11.1
2019-Oct-21 03:15 034 3 gusting 7 11.1
2019-Oct-21 03:00 113 3 gusting 8 10.6
2019-Oct-21 02:45 339 1 gusting 8 10.6
2019-Oct-21 02:30 005 1 gusting 8 10.6
2019-Oct-21 02:15 024 1 gusting 6 10.6
2019-Oct-21 02:01 098 0 gusting 3 10.6
2019-Oct-21 01:45 071 10.0
2019-Oct-21 01:30 137 0 gusting 6 10.0
2019-Oct-21 01:17 048 0 gusting 5 10.0
2019-Oct-21 01:00 077 2 gusting 8 10.0
2019-Oct-21 00:45 331 1 gusting 7 10.0
2019-Oct-21 00:30 300 1 gusting 6 10.0
2019-Oct-21 00:00 066 1 gusting 3 10.0
2019-Oct-20 23:46 079 0 gusting 6 10.6
2019-Oct-20 23:30 032 1 gusting 8 10.0
2019-Oct-20 23:15 048 10.0
2019-Oct-20 23:00 360 1 gusting 6 10.0
2019-Oct-20 22:45 161 2 gusting 9 10.6
2019-Oct-20 22:30 088 11.1
2019-Oct-20 22:15 098 0 gusting 3 11.7
2019-Oct-20 22:00 134 12.2
2019-Oct-20 21:45 107 12.2
2019-Oct-20 21:30 129 0 gusting 4 12.2
2019-Oct-20 21:15 082 12.2
2019-Oct-20 21:00 105 12.8
2019-Oct-20 20:45 326 12.8
2019-Oct-20 20:30 106 12.8
2019-Oct-20 20:00 116 13.3
2019-Oct-20 19:48 092 13.9
2019-Oct-20 19:32 092 13.9
2019-Oct-20 19:16 092 13.9
2019-Oct-20 19:03 092 14.4
2019-Oct-20 18:47 092 14.4
2019-Oct-20 18:32 094 15.0
2019-Oct-20 18:17 112 0 gusting 2 15.0
2019-Oct-20 18:01 109 15.0
2019-Oct-20 17:46 160 15.0
2019-Oct-20 17:33 121 15.0
2019-Oct-20 17:17 146 0 gusting 2 15.0
2019-Oct-20 17:02 149 0 gusting 5 15.6
2019-Oct-20 16:46 133 0 gusting 3 15.6
2019-Oct-20 16:32 175 0 gusting 3 15.6
2019-Oct-20 16:16 138 0 gusting 3 15.0
2019-Oct-20 16:01 142 0 gusting 3 15.0
2019-Oct-20 15:46 100 0 gusting 2 14.4
2019-Oct-20 15:30 098 0 gusting 3 13.9
2019-Oct-20 15:16 077 1 gusting 5 13.9
2019-Oct-20 15:01 095 0 gusting 3 13.3
2019-Oct-20 14:46 136 1 gusting 4 13.3
2019-Oct-20 14:30 102 12.8
2019-Oct-20 14:15 084 12.2
2019-Oct-20 14:01 060 12.2